Location: Fluertsh�userhof
(48.7537°N, 10.3850°E)
Time: 08:31:12
(UTC+00:00)

Cosmos 1937 Rocket - Pass Details

Date: 18 September 2020
Orbit: 747 x 779 km, 74.0° (Epoch: 27 October)

Event Time Altitude Azimuth Distance (km) Brightness Sun altitude
Rises 18:54:15 0° 213° (SSW) 3,234 6.9 -15.3°
Reaches altitude 10° 18:56:40 10° 218° (SW) 2,307 6.2 -15.7°
Maximum altitude 19:01:50 58° 297° (WNW) 895 4.2 -16.5°
Drops below altitude 10° 19:06:59 10° 17° (NNE) 2,301 6.0 -17.3°
Sets 19:09:23 0° 21° (NNE) 3,225 6.8 -17.6°
